Historyczne dane pomiarowe

Dodano dane terminowe – wersja testowa.

Dane z okresu 1951-2019

Wersja bazy: 1.34 [2019-03-16, lista zmian], aktualizacja planowana na 2019-04-15

Dane meteo z obszaru Polski uzyskane na podstawie danych udostępnionych przez Instytut Meteorologii i Gospodarki Wodnej – Państwowy Instytut Badawczy.

 

Wybierz Datę:    

       

TemperaturaWilgotnośćWiatrCiśnienieOpadyŚniegCzas trwania zjawisk
 Stacja t tx tn tng RH VA  wxwx mslp ppp RRR   cm mm wxwxwxwxwxwxwx
2019-05-31 9.5 15.3 5.8 5.8 90.3 10.7 6.4 1.1 0.0 0.0- 925.3 0.0 0.0 0.0- 0.0 1.3 7.2--- 3.0--
2019-05-30 6.9 8.1 6.0 5.9 96.6 9.6 8.0 0.9 0.0 0.0- 923.4 11.5 8.5 3.0- 0.0 0.0 21.8------
2019-05-29 8.8 12.2 7.8 6.9 95.9 10.9 7.6 1.3 0.0 0.0- 916.2 12.3 6.6 5.7- 0.0 0.0 17.2------
2019-05-28 13.2 17.0 11.0 10.2 83.5 12.5 7.0 1.3 0.0 0.0- 909.7 3.8 3.8 0.0- 0.0 0.7 4.1------
2019-05-27 14.9 20.8 7.6 6.5 68.3 11.1 5.8 1.5 0.0 0.0- 915.2 0.3 0.0 0.3- 0.0 5.3 3.2--- 7.0--
2019-05-26 14.2 19.7 6.9 5.7 68.5 10.7 5.4 1.6 0.0 0.0- 917.3 0.0 0.0 0.0- 0.0 9.0---- 10.0--
2019-05-25 12.7 17.9 6.9 5.9 70.1 9.9 4.8 1.6 0.0 0.0- 916.3 0.0 0.0 0.0- 0.0 12.6---- 5.0--
2019-05-24 8.7 9.8 7.2 7.2 96.4 10.8 8.0 1.1 0.0 0.0- 916.0 4.8 4.4 0.4- 0.0 0.0 20.1------
2019-05-23 8.4 10.0 7.5 7.5 93.4 10.3 8.0 2.0 0.0 0.0- 914.8 15.5 11.0 4.5- 0.0 0.0 22.5------
2019-05-22 11.1 14.3 9.4 8.6 87.3 11.4 7.6 2.4 0.0 0.0- 908.5 23.2 5.2 18.0- 0.0 0.6 13.8------
2019-05-21 11.2 14.9 6.1 4.7 74.1 9.7 6.8 1.8 0.0 0.0- 907.7 6.9 0.0 6.9- 0.0 0.5 4.6--- 8.0--
2019-05-20 13.8 16.8 10.6 9.7 63.4 9.8 6.8 2.1 0.0 0.0- 908.1 0.0 0.0 0.0- 0.0 3.5 2.3--- 3.1--
2019-05-19 13.6 19.5 5.9 4.1 67.0 10.0 4.6 1.3 0.0 0.0- 910.4 2.6 0.3 2.3- 0.0 6.0 0.8--- 8.0--
2019-05-18 12.8 19.5 5.7 4.2 65.0 9.1 3.9 1.6 0.0 0.0- 913.1 0.0 0.0 0.0- 0.0 9.2---- 11.0--
2019-05-17 10.6 16.8 4.2 3.4 74.1 9.1 5.8 1.4 0.0 0.0- 914.2 0.8 0.8 0.0- 0.0 5.5 0.7--- 12.0--
2019-05-16 9.1 15.1 5.0 4.8 82.6 9.4 6.8 1.3 0.0 0.0- 914.9 0.0 0.0 0.0- 0.0 4.8 1.6--- 3.0--
2019-05-15 3.7 5.6 0.9 0.9 97.4 7.8 8.0 0.6 0.0 0.0- 917.1 10.3 10.0 0.3- 0.0 0.0 18.5-- 2.5---
2019-05-14 1.2 3.7 0.0 0.0 95.0 6.3 8.0 1.0 0.0 0.0- 923.3 11.3 8.7 2.6 8 1.4 0.0 1.5 12.5 10.0 1.2---
2019-05-13 3.6 7.1 3.2 3.1 90.6 7.2 7.9 1.3 0.0 0.0- 928.6 8.4 0.4 8.0- 0.0 0.0 15.3 0.5 0.3----
2019-05-12 10.3 16.3 6.8 4.9 79.3 9.8 7.3 1.6 0.0 0.0- 920.8 7.9 6.9 1.0- 0.0 2.9 10.5-- 1.4---
2019-05-11 10.4 15.5 6.5 5.4 66.0 8.0 6.0 1.4 0.0 0.0- 915.1 0.0 0.0 0.0- 0.0 4.4 0.6------
2019-05-10 9.0 14.0 4.5 2.9 78.0 8.8 6.6 2.1 0.0 0.0- 910.4 1.8 0.4 1.4- 0.0 9.0 1.5------
2019-05-09 6.5 8.9 3.1 2.0 76.3 7.4 7.6 2.4 0.0 0.0- 907.3 4.5 2.5 2.0- 0.0 0.0 18.3--- 1.0--
2019-05-08 5.9 10.9 -1.6 -2.3 63.4 5.5 3.3 1.9 0.0 0.0- 915.3 1.2 0.0 1.2- 0.0 12.8---- 4.0 4.0-
2019-05-07 2.7 5.5 -0.3 -0.4 82.4 6.0 6.9 1.3 0.0 0.0- 916.8 0.3 0.3 0.0 8 1.5 1.4 0.6 1.3 0.1----
2019-05-06 0.7 2.8 -0.4 -0.4 86.8 5.6 7.9 1.0 0.0 0.0- 913.4 9.4 7.6 1.8 6 1.3 0.0- 17.0-----
2019-05-05 1.7 8.8 0.1 0.2 94.0 6.5 8.0 1.3 0.0 0.0- 910.3 15.1 9.1 6.0- 0.0 0.0 5.0 15.7 1.5 1.7---
2019-05-04 6.5 10.6 0.8 0.4 75.6 7.1 6.0 1.1 0.0 0.0- 908.0 1.4 0.0 1.4- 0.0 3.6----- 3.0-
2019-05-03 6.7 12.1 4.3 2.4 85.5 8.4 6.4 1.3 0.0 0.0- 908.6 6.0 5.8 0.2- 0.0 0.5 10.2--- 6.9--
2019-05-02 10.7 15.5 5.2 3.3 66.1 8.3 5.0 2.9 0.0 0.0- 909.3 0.0 0.0 0.0- 0.0 8.2 0.5--- 2.0--
2019-05-01 8.6 12.8 5.5 5.2 70.0 7.6 6.3 1.8 0.0 0.0- 910.8 3.8 0.0 3.8- 0.0 5.2 4.0------
2019-04-30 7.3 9.1 6.5 6.5 94.9 9.7 8.0 1.4 0.0 0.0- 911.5 21.7 19.6 0.0- 0.0 0.0 20.3------
2019-04-29 6.5 8.7 3.9 3.9 92.6 9.0 8.0 0.9 0.0 0.0- 913.3 7.1 5.1 2.0- 0.0 0.0 16.7------
2019-04-28 5.5 7.8 4.8 4.5 90.6 8.2 7.8 1.4 0.0 0.0- 915.1 21.9 14.9 7.0- 0.0 0.0 24.0------
2019-04-27 10.5 19.2 7.7 7.6 83.4 10.4 7.5 1.4 0.0 0.0- 913.8 28.6 4.6 24.0- 0.0 0.0 13.8------
2019-04-26 16.8 22.7 8.8 6.3 47.3 8.7 5.4 3.0 0.0 0.0- 915.3 0.1 0.0 0.1- 0.0 11.9---- 6.0--
2019-04-25 16.6 20.0 14.1 13.0 46.6 8.7 2.9 3.3 0.0 0.0- 917.8 0.0 0.0 0.0- 0.0 12.9-------
2019-04-24 12.4 15.8 7.0 6.1 60.3 8.7 6.0 3.5 0.0 0.0- 917.4 0.0 0.0 0.0- 0.0 5.7 0.4------
2019-04-23 7.5 12.9 0.9 -1.2 70.5 7.1 5.8 2.3 0.0 0.0- 917.3 0.2 0.0 0.2- 0.0 2.1 8.0--- 2.0 2.2-
2019-04-22 7.6 12.7 3.9 2.4 66.3 6.8 4.5 2.1 0.0 0.0- 917.9 0.1 0.1 0.0- 0.0 6.5 0.9--- 4.0--
2019-04-21 7.6 13.9 0.5 -1.4 53.3 5.5 2.5 1.9 0.0 0.0- 922.7 0.0 0.0 0.0- 0.0 11.2-------
2019-04-20 8.5 15.7 0.5 -1.3 45.0 4.6 2.3 1.8 0.0 0.0- 928.7 0.0 0.0 0.0- 0.0 11.7-------
2019-04-19 8.1 14.9 0.4 -0.8 54.5 5.4 0.0 1.6 0.0 0.0- 930.8 0.0 0.0 0.0- 0.0 12.6----- 3.0-
2019-04-18 6.2 13.5 -0.5 -2.4 74.9 6.9 2.4 1.6 0.0 0.0- 929.2 0.0 0.0 0.0- 0.0 10.5----- 5.0-
2019-04-17 3.3 5.8 1.6 1.6 91.3 7.1 7.8 0.9 0.0 0.0- 924.5 1.5 1.5 0.0- 0.0 0.0 8.3 0.2 0.4----
2019-04-16 3.5 10.7 -4.3 -6.0 50.0 3.6 2.0 1.8 0.0 0.0- 922.1 1.8 0.0 1.8- 0.0 12.5- 0.6--- 7.0-
2019-04-15 3.2 8.3 -2.2 -3.8 52.4 3.9 2.0 1.9 0.0 0.0- 922.3 0.0 0.0 0.0- 0.0 12.4---- 1.0 3.0-
2019-04-14 4.3 10.4 -1.5 -3.2 67.1 5.3 6.5 2.0 0.0 0.0- 918.7 0.0 0.0 0.0- 0.0 9.6----- 7.0-
2019-04-13 0.2 2.3 -1.6 -1.6 94.6 5.9 7.8 1.4 0.0 0.0- 917.8 0.4 0.4 0.0- 0.0 0.0- 2.8-----
2019-04-12 -0.4 2.5 -1.3 -1.3 89.5 5.3 8.0 2.0 0.0 0.0- 918.1 0.5 0.5 0.0- 0.0 0.6- 19.4- 0.9---
2019-04-11 1.3 4.7 0.1 0.1 83.0 5.6 8.0 1.5 0.0 0.0- 916.1 1.3 0.0 1.3- 0.0 0.0 0.6 7.5-----
2019-04-10 5.0 10.1 0.9 -1.3 78.5 6.8 6.0 1.9 0.0 0.0- 912.2 0.0 0.0 0.0- 0.0 2.6---- 3.0 1.0-
2019-04-09 7.8 13.9 1.9 0.6 70.6 7.2 4.4 1.5 0.0 0.0- 910.5 0.0 0.0 0.0- 0.0 5.0---- 9.0--
2019-04-08 8.1 14.4 0.9 -1.4 74.0 7.8 3.4 1.3 0.0 0.0- 909.9 0.0 0.0 0.0- 0.0 6.0---- 4.0 3.0-
2019-04-07 6.8 13.9 0.6 -0.9 73.0 6.9 3.1 0.9 0.0 0.0- 909.7 0.0 0.0 0.0- 0.0 10.2---- 2.0--
2019-04-06 5.8 9.0 3.4 2.3 81.9 7.5 7.1 1.3 0.0 0.0- 909.5 5.8 5.7 0.1- 0.0 1.1 9.8------
2019-04-05 10.2 15.0 5.9 4.1 51.6 6.2 5.5 2.1 0.0 0.0- 909.8 0.0 0.0 0.0- 0.0 6.3-------
2019-04-04 10.8 13.9 9.1 3.1 45.5 5.9 5.6 3.3 0.0 0.0- 909.5 0.0 0.0 0.0- 0.0 4.2-------
2019-04-03 8.3 13.9 0.0 -1.9 50.1 5.2 6.1 2.8 0.0 0.0- 913.2 0.0 0.0 0.0- 0.0 7.4----- 5.0-
2019-04-02 4.4 13.6 -3.6 -4.1 59.5 4.7 1.3 1.1 0.0 0.0- 919.1 0.0 0.0 0.0- 0.0 10.6----- 7.0-
92.2 ms

 

Źródłem pochodzenia danych jest Instytut Meteorologii i Gospodarki Wodnej – Państwowy Instytut Badawczy. Dane Instytutu Meteorologii i Gospodarki Wodnej – Państwowego Instytutu Badawczego zostały przetworzone.

Dane źródłowe można odnaleźć na stronie https://dane.imgw.pl